Back to catalog

KINEIS-3D

AliveCommunicationsSSO
NORAD 61221·PAYLOAD·🇫🇷 France

Launched Sep 20, 2024 from Rocket Lab Launch Complex 1

Loading…

Next Passes (next 24 hours)

TLE

FreshSource: Space-Track

Epoch: Sep 14, 2026, 05:33 UTC

1 61221U 24172B   26257.23132071  .00001308  00000-0  21477-3 0  9995
2 61221  98.0410 346.1851 0001195 156.2309 203.8954 14.72308233106456

Track KINEIS-3D in real time with AllMySat

Download on the App Store